User: anonymous   Login
Location: Asheville, NC
(35.6000°N, 82.5500°W)
Time: 21:59:23
(UTC-04:00)
Language:

AO-73 - Orbit

View from above orbital plane
View from above orbital plane
View from above satellite
View from above satellite

Ground track
Ground track

The orbit data is extracted from the following two-line orbital elements,

1 39444U 13066AE  18114.96067017 +.00000281 +00000-0 +41257-4 0  9995
2 39444 097.5932 147.8847 0057272 326.4369 033.3221 14.81686059237189
Epoch (UTC): 24 April 2018 23:03:21
Eccentricity: 0.0057272
inclination: 97.5932°
perigee height: 584 km
apogee height: 664 km
right ascension of ascending node: 147.8847°
argument of perigee: 326.4369°
revolutions per day: 14.81686059
mean anomaly at epoch: 33.3221°
orbit number at epoch: 23718

The dashed part of the orbit path shows where the satellite is in the earth's shadow,  

DLR